星链-2512 (STARLINK-2512 )

导读 | 星芒AI

STARLINK-2512 是 SpaceX Starlink 卫星互联网项目中的第 2512 颗卫星,属于“星链”计划的第二代卫星群。该卫星用于提供全球高速互联网服务,支持低延迟、高带宽的通信连接,主要服务于偏远和网络基础设施不足的地区。它运行在低地球轨道,配备先进推进系统和激光通信技术,以提升网络效率和稳定性。该计划旨在构建覆盖全球的卫星互联网网络,促进数字包容性与通信技术普及。

基本信息
目录编号:
48319
目录名称:
STARLINK-2512
国际标识:
2021-036AV
轨道中心:
EARTH
卫星名称:
星链-2512
卫星全名:
星链-2512 (STARLINK-2512 )
卫星状态:
在轨 (已飞行1645 天)
发射日期:
2021-04-29 UTC
国别 :
美国 (US)
星等 :
--
轨道信息
数据来源 国际轨道数据
星历时间: 2025-10-30T14:47:34+0800
6小时前
查看轨道信息
半长轴: 6925.352km
偏心率: 0.0001878
轨道倾角: 53.056°
近地点辐角 109.257°
升交点赤经 327.023°
平近点角 250.863°
近地点: 545.916km
远地点: 548.518km
周期: 95.592分钟
每日圈数: 15.06399
详细信息
固有亮度:
5
最大亮度:
2.5
卫星平台:
Starlink V1.0
覆盖范围:
全球
运营商:
太空探索技术公司
运营商所在国:
美国
制造商(研发单位):
太空探索技术公司
制造商所在国:
美国
使用方式:
暂无
卫星简介
星链(Starlink)计划是由太空探索技术公司(SpaceX)提出的一个巨型低轨卫星互联网星座项目,计划在2019年至2024年间在太空搭建由约1.2万颗卫星组成的“星链”网络,其中1584颗将部署在地球上空550千米处的近地轨道,并从2020年开始工作。该卫星仍在工作。
2D轨道图
3D轨道图
轨道高度分析图
轨道倾角分析图
轨道综合分析图
查看轨道综合分析图